Location: Unspecified
(0.0000°N, 0.0000°E)
Time: 18:19:37
(UTC+00:00)

Vanguard 1 Rocket - Visible Passes

Search period start: 18 January 2020 00:00
Search period end: 28 January 2020 00:00
Orbit: 650 x 4226 km, 34.3° (Epoch: 17 January)

Date Brightness Start Highest point End Pass type
(mag) Time Alt. Az. Time Alt. Az. Time Alt. Az.
18 Jan 10.5 18:24:04 10° NW 18:50:49 76° NE 19:09:36 10° ESE visible
18 Jan 10.6 20:59:57 10° WNW 21:22:06 46° SW 21:35:11 10° SSE visible
19 Jan 10.4 19:42:21 10° WNW 20:08:13 68° SW 20:24:24 10° SE visible
19 Jan 11.0 22:24:52 10° W 22:38:15 22° SW 22:47:16 10° S visible
20 Jan 10.5 18:26:33 10° NW 18:53:24 89° NE 19:12:39 10° SE visible
20 Jan 10.9 21:03:53 10° W 21:24:44 38° SW 21:37:43 10° SSE visible
21 Jan 9.6 04:55:00 10° SSE 04:56:41 12° SE 04:58:23 10° ESE visible
21 Jan 10.7 19:45:29 10° WNW 20:10:42 57° SW 20:27:04 10° SE visible
21 Jan 11.1 22:30:48 10° WSW 22:41:35 17° SW 22:49:25 10° S visible
22 Jan 10.7 18:29:13 10° NW 18:55:52 79° SW 19:15:30 10° SE visible
22 Jan 11.1 21:08:23 10° W 21:27:35 31° SW 21:40:10 10° SSE visible
23 Jan 9.1 04:56:25 10° SSW 04:59:52 21° SE 05:03:24 10° E visible
23 Jan 11.0 19:48:59 10° WNW 20:13:15 48° SW 20:29:39 10° SSE visible
23 Jan 11.2 22:37:31 10° WSW 22:45:17 14° SSW 22:51:24 10° S visible
24 Jan 10.9 18:32:09 10° WNW 18:58:18 68° SW 19:18:12 10° SE visible
24 Jan 11.2 21:13:30 10° W 21:30:45 25° SW 21:42:36 10° SSE visible
25 Jan 8.1 04:58:45 10° SSW 05:03:01 38° SE 05:07:19 10° ENE visible
25 Jan 11.2 19:52:58 10° W 20:15:59 40° SW 20:32:10 10° SSE visible
25 Jan 11.3 22:45:00 10° SW 22:49:20 11° SSW 22:53:06 10° S visible
26 Jan 9.4 03:49:10 11° S 03:51:52 16° SSE 03:54:38 10° ESE visible
26 Jan 11.2 18:35:24 10° WNW 19:00:48 57° SW 19:20:46 10° SE visible
26 Jan 11.2 21:19:15 10° WSW 21:34:16 21° SSW 21:45:05 10° SSE visible
27 Jan 6.8 05:01:32 10° SW 05:06:09 73° SE 05:10:44 10° ENE visible
27 Jan 11.3 19:57:29 10° W 20:19:01 33° SW 20:34:40 10° SSE visible
